Regional Weather Roundup
Issued by NWS Wakefield, VA

Home | Current Version | Previous Version | Text Only | Print | Product List | Glossary Off
Versions: 1 2 3 4 5 6 7 8 9 10 11 12 13 14 15 16 17 18 19 20 21 22 23 24 25 26 27 28 29 30 31 32 33 34 35 36 37 38 39 40 41 42 43 44 45 46 47 48 49 50

718
ASUS41 KAKQ 240515
RWRAKQ

REGIONAL WEATHER ROUNDUP
NATIONAL WEATHER SERVICE WAKEFIELD VA
100 AM EDT SUN SEP 24 2017

Note: "fair" indicates few or no clouds below 12,000 feet with no
significant weather and/or obstructions to visibility. * = Denotes
station may not report precipitation (e.g., rain,snow,etc.),
thunder or fog.

VAZ042-051-052>054-056-240600-
NORTHERN VIRGINIA

CITY           SKY/WX    TMP DP  RH WIND       PRES   REMARKS
WASH NATIONAL  PTCLDY    71  62  73 SW3       30.07F
DULLES         CLEAR     64  62  93 NW3       30.08F
FORT BELVOIR   CLEAR     62  61  95 CALM      30.07F
QUANTICO         N/A     67  65  93 NW8       30.07F
FREDERICKSBRG* CLEAR     64  64 100 CALM      30.07S
STAFFORD*      CLEAR     59  59 100 CALM      30.12R
WARRENTON        N/A     56  53  91 CALM      30.08S FOG
CULPEPER*      CLEAR     60  58  94 CALM      30.10S
MANASSAS*      CLEAR     59  59 100 CALM      30.09S FOG
LEESBURG*      CLEAR     64  63  94 CALM      30.09F
WINCHESTER     CLEAR     59  55  88 CALM      30.10F
FRONT ROYAL*   CLEAR     61  55  82 CALM      30.11S
LURAY*         CLEAR     59  54  82 CALM      30.13S
$$

VAZ048-049-060>072-079>083-240600-
CENTRAL AND SOUTH CENTRAL VIRGINIA

CITY           SKY/WX    TMP DP  RH WIND       PRES   REMARKS
RICHMOND       CLEAR     69  65  86 NW3       30.07S
CHESTERFIELD*  NOT AVBL
PETERSBURG*    PTCLDY    63  63 100 CALM      30.08F
HANOVER        CLEAR     65  64  97 CALM      30.09S
TAPPAHANNOCK*  CLEAR    N/A N/A N/A CALM      30.07F
QUINTON*       FAIR      65  65 100 CALM      30.06F
CHARLOTTSVILLE CLEAR     64  61  90 CALM      30.11S
GORDONSVILLE*  CLEAR     59  59 100 CALM      30.09S
ORANGE*        CLEAR     59  55  88 CALM      30.10S
LOUISA*        CLEAR     59  57  94 CALM      30.09S
BUMPASS*       FAIR      61  61 100 CALM      30.09S
FARMVILLE*     PTCLDY    62  62 100 CALM      30.08F
CREWE*         FAIR      64  64 100 CALM      30.08S
FORT PICKETT*  FAIR      67  67 100 W8        30.08F
CHASE CITY*    FAIR      72  66  81 CALM      30.08F
CLARKSVILLE*   FAIR      66  64  94 CALM      30.07F
SOUTH HILL*    PTCLDY    64  63  98 CALM      30.13F
LAWRENCEVILLE* FAIR      67  65  93 CALM      30.07F
EMPORIA*       CLEAR     63  63 100 CALM      30.08F
$$

VAZ088>098-240600-
SOUTHEAST VIRGINIA

CITY           SKY/WX    TMP DP  RH WIND       PRES   REMARKS
NORFOLK        CLEAR     71  69  93 CALM      30.05F
VIRGINIA BEACH CLEAR     67  64  90 CALM      30.04F
NORFOLK NAVAL  CLEAR     69  66  90 CALM      30.06F
WEST POINT*    PTCLDY    64  64 100 CALM      30.08S
SALUDA*        FAIR      68  68 100 CALM      30.06S
NEWPORT NEWS   CLEAR     66  64  93 CALM      30.05F
LANGLEY AFB    CLEAR     68  68  99 CALM      30.04F
FORT EUSTIS    PTCLDY    69  65  89 CALM      30.03F
WILLIAMSBURG*  PTCLDY    70  70 100 CALM      30.07S
HR EXEC AP*    FAIR      62  61  96 CALM      30.06F
FRANKLIN*      CLEAR     65  65  98 CALM      30.06F FOG
US460-WAKEFLD  CLEAR     66  65  96 CALM      30.06F
$$

VAZ020-022-025-037-045-240600-
WEST CENTRAL AND SOUTHWEST VIRGINIA

CITY           SKY/WX    TMP DP  RH WIND       PRES   REMARKS
STAUNTON*      CLEAR     55  53  94 CALM      30.17S
WAYNESBORO*    CLEAR     58  58 100 SW3       30.15F
HOT SPRINGS VA CLEAR     63  46  54 CALM      30.26S
LYNCHBURG      CLEAR     66  59  78 NW3       30.12S
DANVILLE       PTCLDY    62  60  93 CALM      30.09S
SOUTH BOSTON*  FAIR      62  60  94 CALM      30.08F
MARTINSVILLE   PTCLDY    58  58  97 CALM      30.13F
ROANOKE        CLEAR     66  59  78 NE3       30.15F
BLACKSBURG     CLEAR     59  55  87 CALM      30.20F
DUBLIN*        CLEAR     60  56  87 CALM      30.19S
MARION*        CLEAR     57  53  86 CALM      30.21S
HILLSVILLE*    CLEAR     63  52  67 CALM      30.19S
RICHLANDS*     FAIR      68  52  56 SE3       30.17F
WISE*          CLEAR     68  55  64 S3        30.19S
ABINGDON*      CLEAR     65  59  80 E6        30.15S
$$

MDZ021>025-VAZ099-100-240600-
SOUTHERN MARYLAND AND THE DELMARVA PENINSULA

CITY           SKY/WX    TMP DP  RH WIND       PRES   REMARKS
PATUXENT RIVER CLEAR     62  61  96 W5        30.04F
BAY BRIDGE APT CLEAR     70  68  94 CALM      30.05F
LEONARDTOWN    CLEAR     63  61  94 CALM      30.07F
DOVER          CLEAR     69  61  74 NW3       30.02F
GEORGETOWN     CLEAR     67  65  93 CALM      30.05S FOG
EASTON         CLEAR     66  64  93 CALM      30.08F
CAMBRIDGE      CLEAR     64  63  94 CALM      30.05F
SALISBURY      CLEAR     65  64  97 CALM      30.04F
OCEAN CITY     PTCLDY    65  65 100 CALM      30.04F
WALLOPS ISLAND CLEAR     68  68 100 CALM      30.05F
ACCOMACK*      FOG       66  65  99 CALM      30.05F VSB 1
$$

NCZ012>017-030>032-240600-
NORTH CENTRAL AND EASTERN NORTH CAROLINA

CITY           SKY/WX    TMP DP  RH WIND       PRES   REMARKS
ROANOKE RAPIDS FAIR      63  63 100 CALM      30.07S
RALEIGH        MOCLDY    70  63  78 NE3       30.07S
ELIZABETH CITY CLEAR     71  70  96 N7        30.05S
AHOSKIE*       CLEAR     66  66  99 CALM      30.06F
EDENTON*       CLEAR     70  68  93 CALM      30.06S
CURRITUCK*     CLEAR     71  68  90 CALM      30.06S
KILL DEVIL HLS NOT AVBL
MANTEO         CLEAR     70  66  87 NE8       30.05S
CAPE HATTERAS  MOCLDY    72  69  90 VRB7      30.03F
TARBORO*       NOT AVBL
GOLDSBORO      CLEAR     69  69 100 CALM      30.03F
WASHINGTON     PTCLDY    68  67  96 CALM      30.06S
GREENVILLE     CLEAR     68  68 100 CALM      30.07S
NEW BERN       PTCLDY    71  69  93 NE6       30.05S
WILMINGTON     CLEAR     71  69  93 NE6       30.02S
$$

VAZ048-240600-
ELSEWHERE

CITY           SKY/WX    TMP DP  RH WIND       PRES   REMARKS
HARRISBURG PA  CLEAR     67  63  87 N5        30.08S
BALTIMORE      CLEAR     64  61  90 W5        30.05F
ANNAPOLIS      CLEAR     71  71 100 W3        30.05F
ANDREWS AFB    CLEAR     61  60  96 CALM      30.06S
PHILADELPHIA   CLEAR     74  59  59 CALM      30.04F
HENDERSON NC   PTCLDY    64  59  82 CALM      30.08F
GREENSBORO     PTCLDY    70  61  73 NE5       30.09S
ROCKY MOUNT    CLEAR     66  66 100 CALM      30.07R
$$

VAZ100-240600-
MARINE

STATION/POSITION TIME  TEMP    WIND        PRES    WAVE   SWELL
                       AIR SEA DIR/SP/G            HT/PER HT/PER
                 (UTC) (F)     (DEG/KT/KT) (MB)    (FT/S) (FT/S)
BRANDYWINE LGT   0442   75     310/  2/  2 1017.4F
CAPE MAY NJ      0448   72 75   CALM  /  2 1016.5F
LEWES DE         0442   70 74  240/  4/  5 1016.8F
15NM E FENWICK I 0450   72 72  250/  6/  8 1017.4F   4/ 8   3/ 8
OCEAN-CITY-INLET 0442   71 74  270/  4/  5 1017.6F
WACHAPREAGUE VA  0442   70 77  270/  2/  2 1017.7F
THOMAS POINT MD  0500   73 76  320/  5/  6   N/A
GOOSES REEF MD   0500   75 75  290/  4/  6 1018.0
COVE POINT MD    0442   74     300/  3/  4 1018.2F
SOLOMONS ISLAND  0442   71 76  270/  1/  2 1017.2F
BISHOPS HEAD MD  0442   74 78  300/  3/  3 1017.6F
PINEY POINT MD   0442          350/  3/  3   N/A
POTOMAC MD       0500   75 76  350/  2/  4 1016.8    0
CAMBRIDGE MD     0442   69 77              1018.2F
LEWISETTA VA     0442   72 78  270/  3/  4 1017.4F
RAPPAHANNOCK LGT 0442          200/  6/  6 1018.3F
STINGRAY PT      0500   74 76  250/  6/  8 1018.0    1
YORK RVR RNG VA  0442   74     240/  4/  5 1018.1F
YORKTOWN VA      0442   72 77  300/  2/  3 1017.4F
JAMESTOWN VA     0500      79   CALM  /  2   N/A     0
DOMINION TERM VA 0442   74     270/  2/  2 1017.8F
KIPTOPEKE VA     0442      76  100/  2/  2   N/A
CHES BAY BRIDGE  0442   74 76   CALM  /  1 1017.5F
CAPE HENRY VA    0442   73     100/  2/  4   N/A
WILLOUBY STN VA  0442   74        CALM     1017.5F
S CRANEY ISL VA  0442   71     270/  2/  2 1017.4F
CAPE HENRY BUOY  0500      75                N/A     4/13   2/13
1ST LANDING BUOY 0500   74 76              1017.4    2/ 6
64NM E OF VA BCH 0450   69 69   10/  6/  8 1017.6F   9/13   8/13
DUCK PIER NC     0442   72 76   50/ 11/ 12 1017.0F
44100 DUCK FRF   0435      75                N/A     6/13   3/13
44056 DUCK FRF   0430      76                N/A     5/15   3/15
OREGON INLET NC  0442   72 78   30/  6/ 11 1017.2R
HATTERAS NC      0442   72 79   60/  9/ 12 1016.7F
DIAMOND SHLS NC  0450   72 75   30/ 16/ 17 1016.0F   8/15   8/15
CAPE LOOKOUT NC  0500   75      40/ 21/ 22 1016.0F
$$




USA.gov is the U.S. government's official web portal to all federal, state and local government web resources and services.